Location: 22
(39.7117°N, 89.5929°W)
Time: 02:56:31
(UTC-05:00)

A-11 Canister half - Pass Details

Date: 11 June 2023
Orbit: 1524 x 1684 km, 47.3° (Epoch: 30 September)

Event Time Altitude Azimuth Distance (km) Brightness Sun altitude
Rises 01:44:33 0° 298° (WNW) 4,687 11.7 -26.3°
Reaches altitude 10° 01:47:34 10° 298° (WNW) 3,713 11.2 -26.2°
Maximum altitude 01:56:59 85° 212° (SSW) 1,574 8.9 -25.7°
Drops below altitude 10° 02:06:41 10° 125° (SE) 3,817 10.9 -25.2°
Sets 02:09:49 0° 125° (SE) 4,822 11.4 -25.0°
